Date,TemperatureHighF,TemperatureAvgF,TemperatureLowF,DewpointHighF,DewpointAvgF,DewpointLowF,HumidityHigh,HumidityAvg,HumidityLow,PressureMaxIn,PressureMinIn,WindSpeedMaxMPH,WindSpeedAvgMPH,GustSpeedMaxMPH,PrecipitationSumIn
2013-2-1,30.5,26.5,20.0,26.2,13.5,5.7,91,59,43,30.40,29.83,23,3,29,0.00
2013-2-2,30.5,24.1,16.2,25.6,13.6,6.7,92,65,42,30.40,30.04,12,1,12,0.00
2013-2-3,34.9,28.7,20.3,28.2,24.8,18.6,96,86,65,30.04,29.84,18,1,19,0.02
2013-2-4,35.4,30.0,21.8,23.5,17.1,12.1,71,59,46,30.13,29.91,13,2,20,0.00
2013-2-5,38.7,33.7,28.4,30.6,27.7,23.4,88,79,64,29.95,29.87,7,0,7,0.00
2013-2-6,43.7,36.3,27.5,32.1,27.3,21.3,94,71,52,30.37,29.94,16,2,18,0.00
2013-2-7,38.6,32.1,23.3,30.2,24.6,19.5,89,75,57,30.47,30.23,10,1,11,0.00
2013-2-8,42.9,37.6,33.3,40.6,34.3,24.6,97,88,67,30.23,29.73,23,2,23,0.23
2013-2-9,39.5,32.5,25.4,24.6,19.3,16.8,71,58,44,30.40,29.90,29,4,31,0.00
2013-2-10,42.6,31.1,17.6,32.0,18.9,14.4,90,63,35,30.50,30.27,10,1,11,0.00
2013-2-11,54.9,45.4,36.7,51.1,43.3,32.0,98,92,77,30.27,29.69,16,1,16,0.44
2013-2-12,54.3,46.3,35.1,40.9,31.4,28.3,80,57,39,30.00,29.80,26,2,26,0.00
2013-2-13,45.0,35.7,27.1,35.8,30.6,24.8,96,83,60,29.98,29.66,8,1,8,0.18
2013-2-14,47.8,37.7,30.3,33.2,30.4,22.5,97,78,38,30.03,29.77,9,1,9,0.09
2013-2-15,58.4,43.6,33.0,39.1,35.1,29.9,94,74,44,30.05,29.90,13,1,15,0.12
2013-2-16,37.7,35.7,32.7,35.2,31.0,18.7,97,84,57,30.03,29.82,8,1,10,0.09
2013-2-17,32.9,28.6,24.0,20.0,14.9,9.5,71,56,42,30.20,29.82,22,4,26,0.00
2013-2-18,41.2,29.9,20.7,26.8,12.9,8.1,77,51,29,30.39,30.18,15,2,15,0.00
2013-2-19,45.2,39.1,28.9,41.8,31.8,21.1,92,76,53,30.18,29.73,14,2,15,0.08
2013-2-20,37.9,32.4,25.2,25.6,17.3,10.7,62,54,46,30.17,29.84,21,4,23,0.00
2013-2-21,39.2,30.5,23.7,19.5,16.0,12.4,65,55,43,30.34,30.13,18,3,18,0.00
2013-2-22,34.1,31.3,28.3,30.7,24.0,17.6,94,75,62,30.41,30.23,9,1,10,0.01
2013-2-23,45.1,39.4,32.3,44.6,38.6,30.7,98,97,94,30.24,29.80,7,0,7,0.11
2013-2-24,50.9,42.1,32.1,42.2,32.9,22.1,97,72,42,30.11,29.79,24,3,24,0.00
2013-2-25,47.7,36.3,26.6,28.5,24.5,20.6,85,64,44,30.24,30.10,8,1,10,0.00
2013-2-26,43.6,36.3,26.1,42.8,33.3,23.0,100,89,73,30.24,29.62,26,2,30,0.56
2013-2-27,55.1,47.3,41.1,43.4,40.1,34.4,98,78,54,29.69,29.50,20,3,23,0.04
2013-2-28,48.2,42.9,40.1,38.8,32.9,26.3,93,69,45,29.72,29.63,19,3,21,0.03